Time,TemperatureF,DewpointF,PressureIn,WindDirection,WindDirectionDegrees,WindSpeedMPH,WindSpeedGustMPH,Humidity,HourlyPrecipIn,Conditions,Clouds,dailyrainin,SolarRadiationWatts/m^2,SoftwareType,DateUTC
2013-03-09 00:02:00,27.0,24.0,-100.00,SSW,201,4.0,8.0,88,0.00,,,0.00,0.000000,,2013-03-09 06:02:00,
2013-03-09 00:11:00,27.0,24.0,-100.00,SSW,201,4.0,8.0,88,0.00,,,0.00,0.000000,,2013-03-09 06:11:00,
2013-03-09 00:32:00,26.0,23.0,-100.00,SSW,202,4.0,10.0,90,0.00,,,0.00,0.000000,,2013-03-09 06:32:00,
2013-03-09 00:42:00,26.0,23.0,-100.00,SSW,202,4.0,10.0,90,0.00,,,0.00,0.000000,,2013-03-09 06:42:00,
2013-03-09 00:52:00,26.0,23.0,-100.00,SSW,202,4.0,10.0,90,0.00,,,0.00,0.000000,,2013-03-09 06:52:00,
2013-03-09 01:01:00,26.0,23.0,-100.00,SSW,202,4.0,10.0,90,0.00,,,0.00,0.000000,,2013-03-09 07:01:00,
2013-03-09 01:11:00,26.0,23.0,-100.00,SSW,202,4.0,10.0,90,0.00,,,0.00,0.000000,,2013-03-09 07:11:00,
2013-03-09 01:32:00,25.0,23.0,-100.00,SSW,205,2.0,7.0,92,0.00,,,0.00,0.000000,,2013-03-09 07:32:00,
2013-03-09 01:42:00,25.0,23.0,-100.00,SSW,205,2.0,7.0,92,0.00,,,0.00,0.000000,,2013-03-09 07:42:00,
2013-03-09 01:52:00,25.0,23.0,-100.00,SSW,205,2.0,7.0,92,0.00,,,0.00,0.000000,,2013-03-09 07:52:00,
2013-03-09 02:01:00,25.0,23.0,-100.00,SSW,205,2.0,7.0,92,0.00,,,0.00,0.000000,,2013-03-09 08:01:00,
2013-03-09 02:11:00,25.0,23.0,-100.00,SSW,205,2.0,7.0,92,0.00,,,0.00,0.000000,,2013-03-09 08:11:00,
2013-03-09 02:12:00,24.0,22.0,-100.00,South,183,2.0,5.0,93,0.00,,,0.00,0.000000,,2013-03-09 08:12:00,
2013-03-09 02:42:00,24.0,22.0,-100.00,South,183,2.0,5.0,93,0.00,,,0.00,0.000000,,2013-03-09 08:42:00,
2013-03-09 02:52:00,24.0,22.0,-100.00,South,183,2.0,5.0,93,0.00,,,0.00,0.000000,,2013-03-09 08:52:00,
2013-03-09 03:01:00,24.0,22.0,-100.00,South,183,2.0,5.0,93,0.00,,,0.00,0.000000,,2013-03-09 09:01:00,
2013-03-09 03:32:00,24.0,23.0,-100.00,South,179,3.0,5.0,94,0.00,,,0.00,0.000000,,2013-03-09 09:32:00,
2013-03-09 03:42:00,24.0,23.0,-100.00,South,179,3.0,5.0,94,0.00,,,0.00,0.000000,,2013-03-09 09:42:00,
2013-03-09 03:52:00,24.0,23.0,-100.00,South,179,3.0,5.0,94,0.00,,,0.00,0.000000,,2013-03-09 09:52:00,
2013-03-09 04:01:00,24.0,23.0,-100.00,South,179,3.0,5.0,94,0.00,,,0.00,0.000000,,2013-03-09 10:01:00,
2013-03-09 04:11:00,24.0,23.0,-100.00,South,179,3.0,5.0,94,0.00,,,0.00,0.000000,,2013-03-09 10:11:00,
2013-03-09 04:42:00,22.0,20.0,-100.00,South,177,1.0,4.0,92,0.00,,,0.00,0.000000,,2013-03-09 10:42:00,
2013-03-09 04:52:00,22.0,20.0,-100.00,South,177,1.0,4.0,92,0.00,,,0.00,0.000000,,2013-03-09 10:52:00,
2013-03-09 05:01:00,22.0,20.0,-100.00,South,177,1.0,4.0,92,0.00,,,0.00,0.000000,,2013-03-09 11:01:00,
2013-03-09 05:11:00,22.0,20.0,-100.00,South,177,1.0,4.0,92,0.00,,,0.00,0.000000,,2013-03-09 11:11:00,
2013-03-09 05:32:00,23.0,21.0,-100.00,SSE,165,1.0,4.0,93,0.00,,,0.00,0.000000,,2013-03-09 11:32:00,
2013-03-09 05:42:00,23.0,21.0,-100.00,SSE,165,1.0,4.0,93,0.00,,,0.00,0.000000,,2013-03-09 11:42:00,
2013-03-09 05:52:00,23.0,21.0,-100.00,SSE,165,1.0,4.0,93,0.00,,,0.00,0.000000,,2013-03-09 11:52:00,
2013-03-09 06:01:00,23.0,21.0,-100.00,SSE,165,1.0,4.0,93,0.00,,,0.00,0.000000,,2013-03-09 12:01:00,
2013-03-09 06:11:00,23.0,21.0,-100.00,SSE,165,1.0,4.0,93,0.00,,,0.00,0.000000,,2013-03-09 12:11:00,
2013-03-09 06:32:00,24.0,22.0,-100.00,SSE,168,2.0,5.0,93,0.00,,,0.00,0.000000,,2013-03-09 12:32:00,
2013-03-09 06:42:00,24.0,22.0,-100.00,SSE,168,2.0,5.0,93,0.00,,,0.00,0.000000,,2013-03-09 12:42:00,
2013-03-09 06:52:00,24.0,22.0,-100.00,SSE,168,2.0,5.0,93,0.00,,,0.00,0.000000,,2013-03-09 12:52:00,
2013-03-09 07:02:00,24.0,22.0,-100.00,SSE,168,2.0,5.0,93,0.00,,,0.00,0.000000,,2013-03-09 13:02:00,
2013-03-09 07:11:00,24.0,22.0,-100.00,SSE,168,2.0,5.0,93,0.00,,,0.00,0.000000,,2013-03-09 13:11:00,
2013-03-09 07:32:00,27.0,26.0,-100.00,South,182,2.0,4.0,94,0.00,,,0.00,19.000000,,2013-03-09 13:32:00,
2013-03-09 07:42:00,27.0,26.0,-100.00,South,182,2.0,4.0,94,0.00,,,0.00,19.000000,,2013-03-09 13:42:00,
2013-03-09 07:52:00,27.0,26.0,-100.00,South,182,2.0,4.0,94,0.00,,,0.00,19.000000,,2013-03-09 13:52:00,
2013-03-09 08:01:00,27.0,26.0,-100.00,South,182,2.0,4.0,94,0.00,,,0.00,19.000000,,2013-03-09 14:01:00,
2013-03-09 08:11:00,27.0,26.0,-100.00,South,182,2.0,4.0,94,0.00,,,0.00,19.000000,,2013-03-09 14:11:00,
2013-03-09 08:32:00,29.0,27.0,-100.00,South,174,4.0,6.0,93,0.00,,,0.00,55.000000,,2013-03-09 14:32:00,
2013-03-09 08:42:00,29.0,27.0,-100.00,South,174,4.0,6.0,93,0.00,,,0.00,55.000000,,2013-03-09 14:42:00,
2013-03-09 08:52:00,29.0,27.0,-100.00,South,174,4.0,6.0,93,0.00,,,0.00,55.000000,,2013-03-09 14:52:00,
2013-03-09 09:02:00,29.0,27.0,-100.00,South,174,4.0,6.0,93,0.00,,,0.00,55.000000,,2013-03-09 15:02:00,
2013-03-09 09:11:00,29.0,27.0,-100.00,South,174,4.0,6.0,93,0.00,,,0.00,55.000000,,2013-03-09 15:11:00,
2013-03-09 09:32:00,32.0,28.0,-100.00,South,181,4.0,9.0,86,0.00,,,0.00,105.000000,,2013-03-09 15:32:00,
2013-03-09 09:42:00,32.0,28.0,-100.00,South,181,4.0,9.0,86,0.00,,,0.00,105.000000,,2013-03-09 15:42:00,
2013-03-09 09:52:00,32.0,28.0,-100.00,South,181,4.0,9.0,86,0.00,,,0.00,105.000000,,2013-03-09 15:52:00,
2013-03-09 10:01:00,32.0,28.0,-100.00,South,181,4.0,9.0,86,0.00,,,0.00,105.000000,,2013-03-09 16:01:00,
2013-03-09 10:11:00,32.0,28.0,-100.00,South,181,4.0,9.0,86,0.00,,,0.00,105.000000,,2013-03-09 16:11:00,
2013-03-09 10:32:00,34.0,28.0,-100.00,South,173,6.0,15.0,79,0.00,,,0.00,118.000000,,2013-03-09 16:32:00,
2013-03-09 10:42:00,34.0,28.0,-100.00,South,173,6.0,15.0,79,0.00,,,0.00,118.000000,,2013-03-09 16:42:00,
2013-03-09 10:52:00,34.0,28.0,-100.00,South,173,6.0,15.0,79,0.00,,,0.00,118.000000,,2013-03-09 16:52:00,
2013-03-09 11:01:00,34.0,28.0,-100.00,South,173,6.0,15.0,79,0.00,,,0.00,118.000000,,2013-03-09 17:01:00,
2013-03-09 11:11:00,34.0,28.0,-100.00,South,173,6.0,15.0,79,0.00,,,0.00,118.000000,,2013-03-09 17:11:00,
2013-03-09 11:32:00,35.0,28.0,-100.00,SSE,158,6.0,15.0,75,0.00,,,0.00,147.000000,,2013-03-09 17:32:00,
2013-03-09 11:42:00,35.0,28.0,-100.00,SSE,158,6.0,15.0,75,0.00,,,0.00,147.000000,,2013-03-09 17:42:00,
2013-03-09 11:52:00,35.0,28.0,-100.00,SSE,158,6.0,15.0,75,0.00,,,0.00,147.000000,,2013-03-09 17:52:00,
2013-03-09 12:02:00,35.0,28.0,-100.00,SSE,158,6.0,15.0,75,0.00,,,0.00,147.000000,,2013-03-09 18:02:00,
2013-03-09 12:11:00,35.0,28.0,-100.00,SSE,158,6.0,15.0,75,0.00,,,0.00,147.000000,,2013-03-09 18:11:00,
2013-03-09 12:32:00,36.0,28.0,-100.00,SSE,165,6.0,13.0,71,0.00,,,0.00,118.000000,,2013-03-09 18:32:00,
2013-03-09 12:42:00,36.0,28.0,-100.00,SSE,165,6.0,13.0,71,0.00,,,0.00,118.000000,,2013-03-09 18:42:00,
2013-03-09 12:52:00,36.0,28.0,-100.00,SSE,165,6.0,13.0,71,0.00,,,0.00,118.000000,,2013-03-09 18:52:00,
2013-03-09 13:01:00,36.0,28.0,-100.00,SSE,165,6.0,13.0,71,0.00,,,0.00,118.000000,,2013-03-09 19:01:00,
2013-03-09 13:11:00,36.0,28.0,-100.00,SSE,165,6.0,13.0,71,0.00,,,0.00,118.000000,,2013-03-09 19:11:00,
2013-03-09 13:42:00,34.0,31.0,-100.00,South,183,5.0,13.0,87,0.00,,,0.00,87.000000,,2013-03-09 19:42:00,
2013-03-09 13:52:00,34.0,31.0,-100.00,South,183,5.0,13.0,87,0.00,,,0.00,87.000000,,2013-03-09 19:52:00,
2013-03-09 14:01:00,34.0,31.0,-100.00,South,183,5.0,13.0,87,0.00,,,0.00,87.000000,,2013-03-09 20:01:00,
2013-03-09 14:11:00,34.0,31.0,-100.00,South,183,5.0,13.0,87,0.00,,,0.00,87.000000,,2013-03-09 20:11:00,
2013-03-09 14:12:00,34.0,31.0,-100.00,SSE,167,5.0,12.0,89,0.00,,,0.00,50.000000,,2013-03-09 20:12:00,
2013-03-09 14:32:00,34.0,31.0,-100.00,SSE,167,5.0,12.0,89,0.00,,,0.00,50.000000,,2013-03-09 20:32:00,
2013-03-09 14:42:00,34.0,31.0,-100.00,SSE,167,5.0,12.0,89,0.00,,,0.00,50.000000,,2013-03-09 20:42:00,
2013-03-09 14:52:00,34.0,31.0,-100.00,SSE,167,5.0,12.0,89,0.00,,,0.00,50.000000,,2013-03-09 20:52:00,
2013-03-09 15:02:00,34.0,31.0,-100.00,SSE,167,5.0,12.0,89,0.00,,,0.00,50.000000,,2013-03-09 21:02:00,
2013-03-09 15:32:00,34.0,31.0,-100.00,SSE,154,7.0,13.0,88,0.00,,,0.00,35.000000,,2013-03-09 21:32:00,
2013-03-09 15:42:00,34.0,31.0,-100.00,SSE,154,7.0,13.0,88,0.00,,,0.00,35.000000,,2013-03-09 21:42:00,
2013-03-09 15:52:00,34.0,31.0,-100.00,SSE,154,7.0,13.0,88,0.00,,,0.00,35.000000,,2013-03-09 21:52:00,
2013-03-09 16:01:00,34.0,31.0,-100.00,SSE,154,7.0,13.0,88,0.00,,,0.00,35.000000,,2013-03-09 22:01:00,
2013-03-09 16:11:00,34.0,31.0,-100.00,SSE,154,7.0,13.0,88,0.00,,,0.00,35.000000,,2013-03-09 22:11:00,
2013-03-09 16:42:00,35.0,31.0,-100.00,SSE,154,7.0,16.0,85,0.00,,,0.00,42.000000,,2013-03-09 22:42:00,
2013-03-09 16:52:00,35.0,31.0,-100.00,SSE,154,7.0,16.0,85,0.00,,,0.00,42.000000,,2013-03-09 22:52:00,
2013-03-09 17:01:00,35.0,31.0,-100.00,SSE,154,7.0,16.0,85,0.00,,,0.00,42.000000,,2013-03-09 23:01:00,
2013-03-09 17:11:00,35.0,31.0,-100.00,SSE,154,7.0,16.0,85,0.00,,,0.00,42.000000,,2013-03-09 23:11:00,
2013-03-09 17:32:00,35.0,29.0,-100.00,SSE,158,6.0,14.0,79,0.00,,,0.00,22.000000,,2013-03-09 23:32:00,
2013-03-09 17:42:00,35.0,29.0,-100.00,SSE,158,6.0,14.0,79,0.00,,,0.00,22.000000,,2013-03-09 23:42:00,
2013-03-09 17:52:00,35.0,29.0,-100.00,SSE,158,6.0,14.0,79,0.00,,,0.00,22.000000,,2013-03-09 23:52:00,
2013-03-09 18:01:00,35.0,29.0,-100.00,SSE,158,6.0,14.0,79,0.00,,,0.00,22.000000,,2013-03-10 00:01:00,
2013-03-09 18:11:00,35.0,29.0,-100.00,SSE,158,6.0,14.0,79,0.00,,,0.00,22.000000,,2013-03-10 00:11:00,
2013-03-09 18:32:00,33.0,31.0,-100.00,South,171,7.0,13.0,91,0.00,,,0.00,2.000000,,2013-03-10 00:32:00,
2013-03-09 18:43:00,33.0,31.0,-100.00,South,171,7.0,13.0,91,0.00,,,0.00,2.000000,,2013-03-10 00:43:00,
2013-03-09 18:52:00,33.0,31.0,-100.00,South,171,7.0,13.0,91,0.00,,,0.00,2.000000,,2013-03-10 00:52:00,
2013-03-09 19:01:00,33.0,31.0,-100.00,South,171,7.0,13.0,91,0.00,,,0.00,2.000000,,2013-03-10 01:01:00,
2013-03-09 19:11:00,33.0,31.0,-100.00,South,171,7.0,13.0,91,0.00,,,0.00,2.000000,,2013-03-10 01:11:00,
2013-03-09 19:32:00,33.0,31.0,-100.00,South,171,6.0,16.0,93,0.00,,,-99.99,0.000000,,2013-03-10 01:32:00,
2013-03-09 19:42:00,33.0,31.0,-100.00,South,171,6.0,16.0,93,0.00,,,-99.99,0.000000,,2013-03-10 01:42:00,
2013-03-09 19:52:00,33.0,31.0,-100.00,South,171,6.0,16.0,93,0.00,,,-99.99,0.000000,,2013-03-10 01:52:00,
2013-03-09 20:01:00,33.0,31.0,-100.00,South,171,6.0,16.0,93,0.00,,,-99.99,0.000000,,2013-03-10 02:01:00,
2013-03-09 20:11:00,33.0,31.0,-100.00,South,171,6.0,16.0,93,0.00,,,-99.99,0.000000,,2013-03-10 02:11:00,
2013-03-09 20:42:00,33.0,32.0,-100.00,South,171,6.0,13.0,95,0.00,,,-99.99,0.000000,,2013-03-10 02:42:00,
2013-03-09 20:52:00,33.0,32.0,-100.00,South,171,6.0,13.0,95,0.00,,,-99.99,0.000000,,2013-03-10 02:52:00,
2013-03-09 21:02:00,33.0,32.0,-100.00,South,171,6.0,13.0,95,0.00,,,-99.99,0.000000,,2013-03-10 03:02:00,
2013-03-09 21:11:00,33.0,32.0,-100.00,South,171,6.0,13.0,95,0.00,,,-99.99,0.000000,,2013-03-10 03:11:00,
2013-03-09 21:32:00,33.0,32.0,-100.00,South,180,5.0,12.0,96,0.00,,,0.00,0.000000,,2013-03-10 03:32:00,
2013-03-09 21:42:00,33.0,32.0,-100.00,South,180,5.0,12.0,96,0.00,,,0.00,0.000000,,2013-03-10 03:42:00,
2013-03-09 21:52:00,33.0,32.0,-100.00,South,180,5.0,12.0,96,0.00,,,0.00,0.000000,,2013-03-10 03:52:00,
2013-03-09 22:01:00,33.0,32.0,-100.00,South,180,5.0,12.0,96,0.00,,,0.00,0.000000,,2013-03-10 04:01:00,
2013-03-09 22:11:00,33.0,32.0,-100.00,South,180,5.0,12.0,96,0.00,,,0.00,0.000000,,2013-03-10 04:11:00,
2013-03-09 22:32:00,34.0,33.0,-100.00,South,182,8.0,16.0,96,0.00,,,0.00,0.000000,,2013-03-10 04:32:00,
2013-03-09 22:42:00,34.0,33.0,-100.00,South,182,8.0,16.0,96,0.00,,,0.00,0.000000,,2013-03-10 04:42:00,
2013-03-09 22:52:00,34.0,33.0,-100.00,South,182,8.0,16.0,96,0.00,,,0.00,0.000000,,2013-03-10 04:52:00,
2013-03-09 23:01:00,34.0,33.0,-100.00,South,182,8.0,16.0,96,0.00,,,0.00,0.000000,,2013-03-10 05:01:00,
2013-03-09 23:11:00,34.0,33.0,-100.00,South,182,8.0,16.0,96,0.00,,,0.00,0.000000,,2013-03-10 05:11:00,
2013-03-09 23:32:00,34.0,33.0,-100.00,South,191,7.0,14.0,96,0.00,,,0.00,0.000000,,2013-03-10 05:32:00,
2013-03-09 23:42:00,34.0,33.0,-100.00,South,191,7.0,14.0,96,0.00,,,0.00,0.000000,,2013-03-10 05:42:00,
2013-03-09 23:52:00,34.0,33.0,-100.00,South,191,7.0,14.0,96,0.00,,,0.00,0.000000,,2013-03-10 05:52:00,